Location: Allen Lane School
(37.8198°N, 89.7382°W)
Time: 20:37:33
(UTC+00:00)

APEX - Pass Details

Date: 08 December 2021
Orbit: 330 x 1043 km, 69.9° (Epoch: 17 January)

Event Time Altitude Azimuth Distance (km) Brightness Sun altitude
Rises 23:21:15 0° 192° (SSW) 2,877 7.5 -8.2°
Reaches altitude 10° 23:23:46 10° 187° (S) 1,847 6.4 -8.7°
Maximum altitude 23:27:41 50° 112° (ESE) 620 3.3 -9.4°
Enters shadow 23:30:50 11° 36° (NE) 1,490 5.0 -10.0°
